Regional Weather Roundup
Issued by NWS

Home | Current Version | Previous Version | Text Only | Print | Product List | Glossary On
Versions: 1 2 3 4 5 6 7 8 9 10 11 12 13 14 15 16 17 18 19 20 21 22 23 24 25 26 27
000
ASUS42 KFFC 231403
RWRGA
WEATHER ROUNDUP FOR GEORGIA
NATIONAL WEATHER SERVICE PEACHTREE CITY GA
1000 AM EDT WED APR 23 2014

NOTE: "FAIR" INDICATES FEW OR NO CLOUDS BELOW 12,000 FEET WITH NO
SIGNIFICANT WEATHER AND/OR OBSTRUCTIONS TO VISIBILITY.

* = USE WITH CAUTION. THE STATIONS MARKED WITH AN ASTERISK MAY NOT
REPORT WEATHER SUCH AS PRECIPITATION, FOG, OR THUNDER AND ARE NOT
QUALITY CONTROLLED BY NWS.

THE REMARK "TC" DENOTES TEMPERATURE READING IN DEGREES CELSIUS.

GAZ001>058-231500-
NORTH GEORGIA

CITY           SKY/WX    TMP DP  RH WIND       PRES   REMARKS
ATLANTA        MOSUNNY   62  46  55 NW10      29.96R
ATHENS         SUNNY     66  53  63 MISG      29.93R
CHAMBLEE       SUNNY     63  43  48 NW9       29.96R
PEACHTREE CITY SUNNY     63  49  60 NW8       29.97R
ROME           SUNNY     61  38  42 N14       30.00R
WEST ATLANTA   SUNNY     62  46  55 NW8       29.97R
GAINESVILLE    SUNNY     62  42  47 W10       29.95R
CARTERSVILLE   SUNNY     61  43  51 N5        29.99S


CITY           SKY/WX    TMP DP  RH WIND       PRES   REMARKS
DALTON*        SUNNY     55  39  54 N10G16    30.01R
LAWRENCEVILLE* SUNNY     63  46  55 W6        29.94R
MARIETTA       SUNNY     62  46  56 NW8       29.97R
KENNESAW*      SUNNY     57  45  62 W6        29.99R
$$

GAZ059>098-102>109-231500-
CENTRAL GEORGIA

CITY           SKY/WX    TMP DP  RH WIND       PRES   REMARKS
AUGUSTA-BUSH   SUNNY     70  57  63 N10       29.89R
AUGUSTA-DANIEL SUNNY     69  58  67 NW6       29.90R
COLUMBUS       SUNNY     67  54  63 NE6       29.96R
MACON          SUNNY     67  59  75 NW5       29.94R
ROBINS AFB     SUNNY     65  65 100 NW5       29.94R


CITY           SKY/WX    TMP DP  RH WIND       PRES   REMARKS
LAGRANGE*      SUNNY     64  51  62 N6        29.98R
SYLVANIA*      SUNNY     70  63  78 NW7       29.90R
MILLEDGEVILLE* SUNNY     68  52  56 W6        29.92S
$$

GAZ099>101-110>166-231500-
SOUTH GEORGIA

CITY           SKY/WX    TMP DP  RH WIND       PRES   REMARKS
SAVANNAH       PTSUNNY   68  62  81 NW10      29.91R
VALDOSTA       SUNNY     76  63  64 CALM      29.95R
ALMA           SUNNY     71  61  70 W8        29.93R
ST SIMONS      SUNNY     72  62  71 VRB7      29.91R
FT STEWART     CLOUDY    64  64 100 VRB6      29.91R
ALBANY         SUNNY     70  64  81 VRB7      29.97S
HUNTER AFB     PTSUNNY   66  65  97 W6        29.89R
MOODY AFB      SUNNY     71  63  75 NW10      29.94R
BRUNSWICK      SUNNY     73  64  73 W8        29.92R


CITY           SKY/WX    TMP DP  RH WIND       PRES   REMARKS
BAINBRIDGE*    SUNNY     73  68  83 NW5       29.97R
MOULTRIE*      SUNNY     70  64  83 NW9       29.96S
VIDALIA*       MOSUNNY   64  63  94 NW3       29.93R
DOUGLAS*       SUNNY     72  63  73 NW6       29.95R
$$



USA.gov is the U.S. government's official web portal to all federal, state and local government web resources and services.